TimeEST,TemperatureF,Dew PointF,Humidity,Sea Level PressureIn,VisibilityMPH,Wind Direction,Wind SpeedMPH,Gust SpeedMPH,PrecipitationIn,Events,Conditions,WindDirDegrees,DateUTC
12:16 AM,32.0,19.4,60,30.19,10.0,WSW,3.5,-,N/A,,Clear,250,2013-01-05 05:16:00
12:38 AM,32.0,19.4,60,30.19,10.0,Calm,Calm,-,N/A,,Clear,0,2013-01-05 05:38:00
12:59 AM,32.0,19.4,60,30.19,10.0,Calm,Calm,-,N/A,,Clear,0,2013-01-05 05:59:00
1:20 AM,32.0,21.2,64,30.19,10.0,WSW,3.5,-,N/A,,Clear,250,2013-01-05 06:20:00
1:42 AM,32.0,21.2,64,30.19,10.0,WSW,3.5,-,N/A,,Clear,240,2013-01-05 06:42:00
2:03 AM,32.0,21.2,64,30.20,10.0,WSW,4.6,-,N/A,,Clear,240,2013-01-05 07:03:00
2:24 AM,32.0,21.2,64,30.21,10.0,WSW,4.6,-,N/A,,Clear,240,2013-01-05 07:24:00
2:45 AM,32.0,23.0,69,30.22,10.0,WSW,5.8,-,N/A,,Clear,240,2013-01-05 07:45:00
3:07 AM,32.0,21.2,64,30.22,10.0,West,5.8,-,N/A,,Clear,260,2013-01-05 08:07:00
3:28 AM,32.0,21.2,64,30.23,10.0,West,5.8,-,N/A,,Clear,270,2013-01-05 08:28:00
3:49 AM,32.0,21.2,64,30.24,10.0,West,4.6,-,N/A,,Clear,260,2013-01-05 08:49:00
4:11 AM,32.0,21.2,64,30.25,10.0,West,8.1,-,N/A,,Clear,270,2013-01-05 09:11:00
4:53 AM,32.0,21.2,64,30.26,10.0,West,5.8,-,N/A,,Clear,260,2013-01-05 09:53:00
6:18 AM,32.0,19.4,60,30.31,10.0,WNW,4.6,-,N/A,,Clear,300,2013-01-05 11:18:00
6:40 AM,32.0,19.4,60,30.32,10.0,Calm,Calm,-,N/A,,Clear,0,2013-01-05 11:40:00
7:01 AM,30.2,19.4,64,30.33,10.0,West,3.5,-,N/A,,Clear,260,2013-01-05 12:01:00
7:22 AM,28.4,19.4,69,30.34,10.0,Calm,Calm,-,N/A,,Clear,0,2013-01-05 12:22:00
8:05 AM,32.0,19.4,60,30.35,10.0,Calm,Calm,-,N/A,,Clear,0,2013-01-05 13:05:00
8:26 AM,33.8,21.2,60,30.35,10.0,NNW,3.5,-,N/A,,Clear,330,2013-01-05 13:26:00
8:47 AM,35.6,21.2,56,30.35,10.0,Calm,Calm,-,N/A,,Clear,0,2013-01-05 13:47:00
9:08 AM,35.6,21.2,56,30.36,10.0,North,4.6,-,N/A,,Clear,360,2013-01-05 14:08:00
9:30 AM,37.4,21.2,52,30.39,10.0,WNW,6.9,-,N/A,,Clear,300,2013-01-05 14:30:00
9:51 AM,37.4,21.2,52,30.40,10.0,NW,6.9,-,N/A,,Clear,320,2013-01-05 14:51:00
10:12 AM,37.4,21.2,52,30.39,10.0,NW,6.9,-,N/A,,Clear,310,2013-01-05 15:12:00
10:33 AM,39.2,21.2,49,30.39,10.0,NNW,9.2,-,N/A,,Clear,340,2013-01-05 15:33:00
10:55 AM,41.0,21.2,45,30.39,10.0,NW,8.1,-,N/A,,Clear,320,2013-01-05 15:55:00
11:16 AM,41.0,21.2,45,30.37,10.0,NW,6.9,-,N/A,,Clear,310,2013-01-05 16:16:00
11:58 AM,42.8,19.4,39,30.37,10.0,NNW,5.8,-,N/A,,Clear,340,2013-01-05 16:58:00
12:20 PM,42.8,19.4,39,30.36,10.0,North,4.6,-,N/A,,Clear,360,2013-01-05 17:20:00
12:41 PM,42.8,19.4,39,30.35,10.0,NNW,3.5,-,N/A,,Clear,330,2013-01-05 17:41:00
1:02 PM,42.8,19.4,39,30.34,10.0,NW,8.1,-,N/A,,Clear,310,2013-01-05 18:02:00
1:23 PM,44.6,19.4,37,30.32,10.0,NW,8.1,-,N/A,,Clear,310,2013-01-05 18:23:00
1:45 PM,44.6,19.4,37,30.31,10.0,NW,4.6,-,N/A,,Clear,320,2013-01-05 18:45:00
2:06 PM,44.6,19.4,37,30.31,10.0,NW,4.6,-,N/A,,Clear,310,2013-01-05 19:06:00
2:27 PM,44.6,19.4,37,30.31,10.0,West,5.8,-,N/A,,Clear,280,2013-01-05 19:27:00
2:49 PM,44.6,17.6,34,30.31,10.0,WNW,6.9,-,N/A,,Clear,290,2013-01-05 19:49:00
3:10 PM,44.6,17.6,34,30.31,10.0,Calm,Calm,-,N/A,,Clear,0,2013-01-05 20:10:00
3:52 PM,42.8,24.8,49,30.32,10.0,East,4.6,-,N/A,,Clear,80,2013-01-05 20:52:00
4:14 PM,41.0,24.8,53,30.32,10.0,East,3.5,-,N/A,,Clear,80,2013-01-05 21:14:00
4:56 PM,37.4,26.6,65,30.32,10.0,Calm,Calm,-,N/A,,Clear,0,2013-01-05 21:56:00
5:17 PM,37.4,26.6,65,30.32,10.0,Calm,Calm,-,N/A,,Clear,0,2013-01-05 22:17:00
6:00 PM,35.6,26.6,70,30.32,10.0,SE,3.5,-,N/A,,Clear,130,2013-01-05 23:00:00
6:21 PM,35.6,26.6,70,30.32,10.0,Calm,Calm,-,N/A,,Clear,0,2013-01-05 23:21:00
6:42 PM,33.8,26.6,75,30.31,10.0,SE,3.5,-,N/A,,Clear,130,2013-01-05 23:42:00
7:04 PM,33.8,26.6,75,30.30,10.0,SE,4.6,-,N/A,,Clear,130,2013-01-06 00:04:00
7:25 PM,35.6,26.6,70,30.30,10.0,SSE,3.5,-,N/A,,Clear,150,2013-01-06 00:25:00
8:50 PM,35.6,28.4,75,30.30,10.0,Calm,Calm,-,N/A,,Clear,0,2013-01-06 01:50:00
9:11 PM,35.6,28.4,75,30.28,10.0,Calm,Calm,-,N/A,,Clear,0,2013-01-06 02:11:00
9:33 PM,35.6,30.2,81,30.27,10.0,Calm,Calm,-,N/A,,Clear,0,2013-01-06 02:33:00
9:54 PM,35.6,30.2,81,30.27,10.0,Calm,Calm,-,N/A,,Clear,0,2013-01-06 02:54:00
10:15 PM,35.6,30.2,81,30.27,10.0,SSE,4.6,-,N/A,,Scattered Clouds,160,2013-01-06 03:15:00
10:37 PM,37.4,30.2,75,30.26,10.0,South,4.6,-,N/A,,Mostly Cloudy,180,2013-01-06 03:37:00
10:58 PM,37.4,30.2,75,30.27,10.0,South,4.6,-,N/A,,Mostly Cloudy,190,2013-01-06 03:58:00
11:19 PM,37.4,30.2,75,30.26,10.0,South,5.8,-,N/A,,Scattered Clouds,170,2013-01-06 04:19:00
11:41 PM,37.4,30.2,75,30.26,10.0,Calm,Calm,-,N/A,,Mostly Cloudy,0,2013-01-06 04:41:00